Wind_Speed
19 18 18 18 17 17 19 19 19 17 16 14 13 12 12 11 11 10 10 9 9 8 8 8 8 8 9 9 9 9 10 10 10 10 10 10 11 11 12 12 12 12 12 12
19 19 18 17 16 17 17 18 18 18 16 15 15 14 12 12 12 11 11 10 10 9 9 9 9 10 10 10 10 10 10 10 10 10 10 10 11 11 11 11 11 12 12 12
20 20 19 18 17 17 17 17 18 17 16 15 15 14 13 13 13 13 13 12 11 11 10 10 10 10 11 10 10 10 10 10 10 10 10 11 11 11 11 11 11 10 11 11
21 21 20 19 19 18 17 17 17 17 16 15 15 14 14 15 15 15 14 14 13 13 12 12 12 11 11 11 11 11 11 11 11 11 11 11 10 10 10 10 9 9 9 10
22 22 21 19 20 19 19 17 17 17 16 15 15 15 15 15 15 15 15 14 14 13 13 13 13 12 12 12 11 11 11 11 11 11 12 12 11 11 11 10 9 9 9 10
23 23 22 21 21 21 20 19 18 18 17 17 16 16 15 15 15 15 15 15 15 15 14 13 13 13 13 12 12 12 12 12 11 11 12 11 11 11 11 10 10 10 10 11
24 23 22 22 23 22 21 19 19 18 18 17 16 15 15 16 16 16 16 16 16 15 15 14 14 14 14 13 13 13 13 13 13 12 12 12 11 11 11 11 11 11 11 11
25 24 22 22 23 23 21 20 19 19 18 17 16 16 16 16 16 16 16 16 16 16 15 15 15 15 14 14 14 14 13 14 13 13 13 12 12 12 11 11 11 11 11 12
27 26 25 24 24 23 22 21 20 20 19 18 18 18 17 17 18 18 17 16 16 17 16 16 16 16 16 15 15 15 14 14 14 14 14 13 12 12 12 12 12 12 11 11
28 27 26 26 25 25 23 22 21 21 21 20 20 19 18 17 17 17 17 16 17 18 17 17 17 18 17 16 16 16 15 15 15 14 14 14 14 13 13 12 11 11 10 11
28 27 27 26 25 25 25 24 23 22 22 22 21 20 20 20 19 19 19 19 19 19 19 18 18 18 19 18 18 17 16 16 15 15 14 14 13 13 13 12 12 11 11 11
28 27 27 27 25 25 25 25 24 23 23 23 23 22 22 22 22 22 21 21 20 20 19 19 19 19 19 19 19 18 17 16 16 15 15 14 14 14 13 13 13 12 12 12
28 27 27 27 26 26 25 25 25 25 24 24 24 24 23 22 23 24 23 22 22 21 20 20 20 20 19 19 19 18 18 17 17 16 15 15 15 15 15 14 14 14 13 13
29 28 27 27 27 27 26 26 26 26 25 25 24 24 23 23 23 24 23 23 22 22 21 21 20 20 19 19 19 19 19 18 18 17 17 16 16 15 15 15 15 14 14 15
28 28 27 27 27 27 26 26 26 26 26 26 26 25 25 25 24 24 24 24 23 23 22 22 21 20 20 20 20 19 20 20 20 19 18 17 16 16 15 15 15 15 15 15
27 28 27 27 26 26 26 26 26 26 25 25 26 26 26 25 25 25 24 24 23 22 22 22 21 21 21 21 21 20 20 20 20 19 18 18 18 17 17 17 16 16 16 16
27 28 27 26 26 25 26 26 26 26 26 26 26 26 27 26 26 25 25 24 24 24 23 23 22 21 21 21 21 21 21 20 19 19 18 18 19 18 18 18 18 17 16 16
27 27 26 26 26 25 25 25 25 25 26 26 27 27 27 27 27 26 25 24 24 24 24 25 24 23 22 22 22 22 22 22 21 20 19 19 19 19 19 18 17 17 17 17
26 26 26 26 26 25 25 25 25 25 25 25 25 25 25 25 26 25 25 25 25 25 25 26 25 24 24 23 23 23 22 22 21 20 20 20 20 19 18 18 18 18 18 18
26 26 25 25 25 25 25 25 26 26 26 26 26 25 25 25 25 25 25 25 25 26 26 26 26 25 25 25 24 23 22 22 21 21 20 20 20 20 20 20 19 19 19 19
27 26 25 24 24 24 24 24 24 25 25 25 25 24 25 25 25 25 25 24 24 25 25 25 24 24 24 24 24 24 23 23 23 22 22 21 21 22 22 21 21 21 20 20
26 26 26 25 24 23 23 23 23 23 23 23 23 23 23 23 24 24 23 23 23 24 24 24 24 23 23 23 24 24 24 23 23 23 23 22 22 21 22 23 23 23 22 22
22 23 25 26 25 24 23 22 22 22 22 22 23 23 23 23 23 23 23 23 23 23 23 23 23 23 23 24 24 24 24 24 23 23 23 22 22 21 22 23 23 24 24 23
22 22 22 23 23 23 23 23 23 23 22 22 23 23 23 22 22 23 23 23 24 23 23 23 23 23 23 23 24 24 23 23 23 23 22 22 22 22 22 22 23 24 24 24
22 22 23 23 22 23 23 23 23 23 23 22 23 23 22 22 22 22 22 23 23 23 23 23 23 23 22 22 23 23 23 23 23 23 23 23 22 22 23 23 23 24 25 25
23 22 21 21 21 21 22 22 22 23 23 22 22 22 22 22 22 22 22 22 22 23 23 23 23 23 23 23 23 24 24 25 25 26 25 25 25 24 24 24 24 24 24 25
24 24 23 23 22 22 22 22 22 22 22 22 22 22 22 22 22 22 22 23 23 23 23 23 23 23 23 24 25 25 25 25 26 26 27 27 26 26 26 26 26 27 27 27
Wind_Direction
285 286 286 287 286 287 289 291 292 291 287 285 279 277 279 276 273 271 272 273 280 279 280 281 279 278 283 288 293 294 291 290 292 287 284 284 286 286 288 290 291 292 292 291
282 285 287 285 287 289 291 291 292 290 285 283 277 273 272 268 266 268 270 270 274 273 276 283 280 280 284 288 292 293 289 287 290 286 283 283 284 287 290 292 293 293 293 292
281 283 284 283 287 289 290 290 291 290 288 281 276 273 270 265 263 264 267 269 269 270 272 277 280 282 285 289 291 294 292 289 288 288 286 287 286 288 290 292 293 295 295 292
281 281 284 285 284 286 288 290 288 286 285 281 278 274 268 264 264 265 266 266 266 269 271 272 277 279 282 287 291 297 294 292 291 289 288 287 287 289 290 292 293 295 294 294
281 281 283 282 283 284 287 289 288 284 281 280 277 271 268 268 268 268 265 264 265 265 268 270 275 280 283 288 292 296 298 296 294 291 291 287 287 288 290 291 291 294 295 297
281 283 282 283 281 283 284 283 283 282 278 278 274 269 267 268 268 270 266 266 265 263 264 267 271 277 282 284 289 293 292 291 292 290 292 287 286 284 287 286 288 291 292 296
277 278 278 279 281 284 284 284 281 281 278 276 276 270 267 267 268 269 269 268 266 263 263 264 268 272 277 279 283 287 287 287 290 291 290 288 285 282 285 286 287 287 288 292
273 275 276 276 277 279 281 282 280 278 276 273 273 269 265 266 267 268 267 266 264 264 265 264 266 269 272 277 279 280 282 286 287 289 291 287 284 285 285 286 286 286 287 290
271 272 274 275 276 277 278 279 276 274 274 272 270 269 266 267 266 266 265 264 263 263 265 264 266 270 271 275 278 279 278 281 283 287 289 286 285 284 283 286 287 286 287 288
267 268 271 273 274 274 275 273 272 270 270 271 270 266 264 265 263 261 260 262 263 263 264 264 267 271 273 276 278 279 277 278 282 285 286 285 284 282 281 284 286 284 283 284
264 266 267 269 271 272 272 271 271 269 269 268 265 262 262 264 264 263 262 260 261 263 263 264 267 270 272 274 275 276 276 277 283 286 286 285 283 281 282 282 283 281 280 282
267 268 269 268 269 270 270 269 269 268 268 266 264 263 264 264 263 264 263 263 262 262 262 264 265 266 268 271 272 274 276 278 280 283 285 284 284 283 282 281 282 281 278 281
265 267 268 268 268 268 268 266 266 266 265 265 265 265 265 265 264 264 264 261 261 262 263 262 262 263 266 268 269 271 274 277 277 278 281 283 283 281 281 280 280 279 277 280
263 266 267 266 266 266 266 265 265 265 265 264 265 266 265 264 264 263 261 261 260 260 260 260 261 263 264 266 267 269 272 274 275 273 275 279 279 281 279 276 275 276 277 279
262 264 266 266 266 266 266 265 265 265 265 264 263 264 263 263 262 262 261 262 258 258 259 261 263 263 263 265 266 269 273 275 277 272 271 274 276 276 275 276 275 275 276 277
262 263 264 265 266 266 266 264 264 264 264 264 263 262 261 261 261 263 262 261 259 259 259 260 262 263 263 264 266 269 272 274 275 270 269 271 273 274 272 274 274 275 276 277
263 263 262 262 264 265 266 265 264 264 263 263 263 261 260 260 261 261 259 259 259 259 258 259 262 264 263 264 266 267 270 273 273 271 270 271 272 272 271 271 271 271 272 273
261 260 259 259 260 261 263 263 263 263 264 262 259 259 259 258 258 258 259 261 262 260 260 261 264 265 266 266 266 268 270 271 272 270 268 270 271 271 272 269 267 266 266 268
260 260 260 258 258 258 261 262 262 262 261 260 258 257 257 258 258 259 261 262 262 261 262 263 265 266 267 267 267 268 268 268 267 267 268 267 267 267 268 266 264 265 266 267
260 260 258 258 257 257 259 260 261 262 261 260 258 258 259 261 262 261 262 264 264 264 264 265 265 264 264 265 264 263 264 264 265 267 268 268 265 265 264 263 262 264 264 266
258 257 257 257 256 257 259 260 262 262 261 260 259 261 262 262 261 262 263 263 263 263 264 264 265 264 263 264 263 262 262 263 265 266 266 267 266 264 263 262 262 265 266 267
260 259 259 258 257 256 258 260 260 260 258 258 259 259 260 260 260 259 259 258 258 260 261 262 262 262 262 264 264 261 261 262 263 263 263 265 265 265 264 263 263 264 266 269
257 257 257 258 259 258 258 259 259 259 259 260 260 261 261 262 262 260 258 257 259 260 260 260 261 261 261 262 261 260 261 262 262 261 262 263 264 266 267 266 266 264 264 267
255 256 257 257 258 260 260 259 259 260 261 262 263 263 262 262 261 260 258 259 261 262 261 260 260 261 262 261 259 258 259 261 260 260 260 262 265 267 267 268 267 265 265 266
259 259 258 259 260 259 259 259 258 259 259 261 262 262 262 260 259 259 260 263 262 261 262 262 263 263 263 262 261 259 259 260 259 259 263 265 267 267 268 269 269 268 267 267
260 261 261 261 259 258 257 257 258 258 258 260 260 260 260 259 258 260 261 262 261 262 264 265 264 263 263 261 260 259 258 259 260 262 263 264 266 267 268 269 270 271 271 270
261 261 261 261 260 259 258 258 259 259 259 259 260 261 261 261 262 262 262 263 265 266 267 267 266 265 264 262 261 261 261 262 262 261 262 262 263 265 266 268 269 269 270 272
Height
5800 5799 5797 5797 5795 5794 5792 5791 5790 5789 5789 5789 5788 5788 5787 5787 5787 5787 5788 5788 5788 5788 5787 5787 5787 5786 5786 5785 5784 5784 5783 5782 5782 5782 5781 5780 5779 5778 5777 5776 5776 5775 5774 5774
5795 5794 5793 5792 5791 5790 5789 5787 5786 5785 5785 5784 5784 5784 5784 5784 5784 5785 5785 5785 5785 5785 5785 5785 5785 5784 5783 5783 5782 5781 5780 5780 5779 5779 5778 5777 5776 5775 5773 5772 5772 5771 5770 5770
5790 5790 5788 5788 5788 5786 5785 5783 5782 5781 5781 5780 5780 5780 5780 5781 5781 5782 5782 5782 5782 5782 5782 5782 5782 5782 5781 5780 5780 5779 5778 5777 5776 5775 5774 5773 5772 5771 5770 5769 5768 5767 5767 5767
5785 5785 5784 5786 5783 5782 5781 5780 5778 5777 5776 5776 5776 5776 5776 5777 5778 5778 5779 5779 5779 5779 5779 5779 5779 5779 5778 5778 5777 5776 5775 5774 5773 5772 5771 5770 5769 5768 5767 5766 5765 5764 5764 5763
5779 5778 5778 5779 5778 5777 5776 5776 5775 5773 5773 5772 5772 5772 5772 5773 5774 5774 5775 5775 5776 5776 5776 5776 5776 5776 5775 5775 5774 5773 5772 5771 5770 5769 5768 5767 5766 5766 5765 5764 5763 5762 5761 5761
5774 5772 5772 5775 5773 5771 5772 5771 5770 5769 5768 5768 5768 5768 5769 5769 5769 5770 5771 5771 5772 5772 5772 5772 5773 5773 5772 5772 5771 5770 5769 5768 5768 5767 5766 5765 5764 5763 5762 5761 5760 5760 5759 5758
5767 5766 5767 5767 5766 5766 5767 5767 5765 5764 5764 5764 5764 5764 5765 5765 5765 5765 5766 5766 5767 5768 5768 5768 5769 5769 5769 5768 5768 5767 5766 5765 5764 5763 5762 5761 5760 5760 5759 5758 5758 5757 5756 5755
5761 5761 5763 5761 5760 5761 5761 5760 5760 5759 5759 5759 5759 5759 5760 5760 5760 5761 5761 5762 5762 5763 5763 5764 5765 5765 5765 5764 5764 5763 5762 5761 5760 5759 5759 5758 5757 5756 5756 5755 5754 5754 5753 5752
5755 5756 5755 5754 5754 5754 5754 5754 5754 5754 5754 5754 5755 5755 5755 5756 5756 5756 5757 5757 5758 5759 5759 5760 5760 5760 5760 5760 5760 5759 5758 5757 5757 5756 5755 5754 5753 5753 5752 5752 5751 5750 5749 5749
5747 5748 5748 5748 5747 5748 5748 5747 5748 5748 5748 5749 5749 5750 5750 5751 5751 5751 5752 5753 5754 5754 5754 5755 5755 5755 5755 5756 5755 5754 5754 5753 5753 5752 5751 5750 5749 5749 5748 5748 5747 5747 5746 5745
5739 5740 5740 5741 5741 5741 5741 5741 5741 5742 5742 5742 5743 5744 5745 5746 5746 5747 5747 5748 5748 5749 5749 5749 5750 5750 5750 5750 5750 5750 5749 5749 5748 5747 5747 5746 5745 5745 5744 5744 5743 5743 5742 5742
5732 5733 5733 5733 5733 5734 5734 5734 5735 5735 5735 5736 5736 5737 5738 5739 5740 5740 5741 5742 5742 5743 5743 5743 5744 5744 5744 5745 5745 5745 5744 5744 5743 5743 5742 5742 5741 5741 5740 5740 5739 5739 5739 5738
5723 5724 5725 5725 5726 5726 5726 5726 5727 5728 5729 5729 5730 5731 5731 5732 5733 5733 5734 5735 5736 5737 5737 5737 5738 5738 5739 5739 5739 5739 5739 5738 5738 5737 5737 5737 5736 5736 5736 5736 5735 5735 5735 5734
5715 5715 5716 5717 5717 5718 5718 5719 5719 5720 5720 5721 5723 5723 5724 5725 5726 5726 5727 5728 5729 5730 5731 5731 5732 5732 5732 5733 5733 5733 5733 5733 5732 5732 5732 5732 5731 5731 5731 5731 5731 5730 5730 5730
5707 5707 5708 5708 5709 5709 5710 5710 5711 5712 5712 5713 5714 5715 5716 5717 5719 5720 5721 5721 5722 5723 5724 5725 5725 5726 5726 5726 5727 5727 5727 5727 5727 5726 5726 5726 5726 5726 5726 5725 5725 5725 5725 5725
5698 5699 5699 5700 5700 5701 5702 5702 5703 5704 5704 5705 5705 5707 5708 5710 5711 5712 5713 5714 5715 5716 5717 5718 5719 5719 5719 5720 5720 5720 5721 5721 5721 5721 5721 5721 5720 5720 5720 5720 5720 5720 5720 5720
5690 5690 5691 5691 5692 5693 5693 5694 5694 5695 5696 5697 5697 5698 5700 5701 5703 5704 5705 5706 5707 5708 5709 5710 5711 5712 5712 5712 5713 5714 5714 5714 5714 5714 5714 5714 5714 5714 5714 5714 5714 5715 5715 5714
5681 5682 5682 5683 5684 5684 5685 5686 5687 5687 5688 5688 5689 5690 5691 5693 5694 5695 5697 5698 5699 5701 5702 5703 5703 5704 5705 5705 5706 5706 5707 5707 5708 5708 5708 5708 5708 5708 5708 5708 5708 5709 5709 5709
5673 5674 5674 5675 5676 5676 5677 5678 5679 5680 5680 5680 5681 5682 5683 5684 5686 5687 5688 5690 5691 5693 5694 5694 5695 5696 5697 5697 5698 5699 5699 5700 5700 5700 5701 5701 5701 5701 5701 5702 5702 5703 5703 5703
5665 5666 5666 5667 5668 5669 5670 5671 5671 5672 5672 5673 5673 5674 5676 5677 5678 5679 5680 5681 5682 5684 5685 5686 5687 5688 5689 5689 5690 5691 5692 5692 5693 5693 5693 5693 5694 5694 5695 5695 5696 5696 5697 5697
5658 5658 5659 5660 5661 5662 5663 5663 5664 5665 5665 5666 5666 5667 5668 5669 5670 5671 5671 5673 5674 5675 5676 5677 5678 5679 5680 5681 5682 5683 5684 5685 5685 5686 5686 5686 5687 5687 5688 5688 5689 5689 5690 5690
5650 5651 5651 5652 5653 5655 5655 5656 5657 5658 5658 5659 5659 5660 5661 5662 5663 5663 5664 5665 5666 5667 5668 5669 5670 5671 5672 5673 5673 5674 5675 5676 5677 5678 5678 5678 5679 5679 5680 5681 5681 5682 5683 5683
5642 5643 5644 5645 5646 5647 5648 5649 5650 5651 5651 5652 5653 5653 5654 5655 5655 5656 5657 5658 5658 5659 5660 5661 5662 5663 5664 5665 5665 5666 5667 5668 5668 5669 5670 5670 5671 5672 5672 5673 5674 5674 5675 5675
5635 5636 5637 5638 5639 5640 5641 5642 5643 5643 5644 5645 5645 5646 5646 5647 5648 5649 5650 5651 5651 5652 5653 5654 5654 5655 5656 5656 5657 5658 5659 5660 5661 5661 5662 5662 5663 5664 5665 5665 5665 5666 5666 5667
5628 5629 5631 5632 5632 5633 5634 5634 5635 5636 5637 5638 5638 5639 5639 5640 5641 5641 5642 5643 5644 5644 5645 5646 5646 5647 5648 5649 5649 5651 5651 5652 5653 5653 5654 5655 5656 5656 5657 5657 5657 5658 5658 5659
5621 5622 5623 5624 5625 5626 5627 5627 5628 5629 5630 5631 5632 5632 5633 5633 5634 5634 5635 5635 5636 5637 5637 5638 5639 5639 5640 5641 5641 5642 5643 5644 5645 5646 5646 5647 5647 5648 5649 5649 5649 5650 5650 5650
5614 5615 5616 5616 5618 5619 5619 5620 5621 5622 5622 5623 5624 5625 5625 5626 5626 5627 5627 5628 5629 5629 5629 5630 5630 5631 5632 5632 5633 5634 5634 5635 5636 5636 5637 5638 5639 5639 5640 5640 5641 5641 5641 5641